Погода в Пролетарске

Россия / Брянская область     52°36′02″N   32°59′00″E
темп.,
°C
ветер,
м/с
пор.,
м/с
влажн.,
%
обл.,
%
осадки,
мм/ч
давл.,
гПа
погр.,
м
27 ноября, сб
сб2700:00+1ююв61593100 0.0 1009429
03:00+1ююв61591100 0.0 1006470
06:00+1юв81791100 0.0 1003516
09:00+2юв91994100 1.1 1000804
12:00+4ююв91993100 1.8 998965
15:00+5ю71595100 2.4 997581
18:00+5ю6129899 0.0 998435
21:00+6ююз6139322 0.4 999490
28 ноября, вс
вс2800:00+4юз51094100 0.1 1001319
03:00+2зюз49945 0.1 1003235
06:000юз35935 0.0 1004105
09:000юз369273 0.0 1006134
12:00+4ююз23755 0.0 1006208
15:00+4юв3477100 0.0 1006102
18:00+2юв3887100 0.0 1006133
21:00+3юв41295100 0.0 1004249
29 ноября, пн
пн2900:00+3юв51395100 0.0 1003275
03:00+5юв41096100 0.1 1002230
06:00+5юв4997100 0.0 999218
09:00+5вюв3899100 0.3 997216
12:00+6юв4899100 0.2 995280
15:00+7юв4899100 0.2 992303
18:00+8юв4997100 0.6 989335
21:00+7юв3899100 2.0 985287
30 ноября, вт
вт3000:00+7юз51197100 0.1 983650
03:00+2зюз91690100 0.4 986777
06:00+2зюз101674100 0.0 9881294
09:00+1юз101787100 0.1 9901434
12:00+2юз101671100 0.1 9901531
15:00+1юз10168094 0.3 9901441
18:000зюз91480100 0.5 9911107
21:00−2зюз9159198 1.0 9931146
1 декабря, ср
ср100:00−2з91592100 0.6 9951084
03:00−1з81378100 0.9 9961129
06:00−2з81283100 0.1 998981
09:00−3з7128471 0.1 1000701
12:00−2з697569 0.0 1002796
15:00−1зюз47705 0.0 1002687
18:00−3ююз4107669 0.0 1003310
21:00−2ююз5118697 0.0 1002439